Regional Weather Roundup
Issued by NWS

Home | Current Version | Previous Version | Text Only | Print | Product List | Glossary On
Versions: 1 2 3 4 5 6 7 8 9 10 11 12 13 14 15 16 17 18 19 20 21 22 23 24 25 26 27 28 29 30 31 32 33 34 35 36 37 38 39 40 41 42 43 44 45 46 47 48 49 50
256
ASUS45 KBOU 222207
RWRCO

WEATHER ROUNDUP FOR COLORADO
NATIONAL WEATHER SERVICE DENVER/BOULDER CO
300 PM MST SUN JAN 22 2017

NOTE: "FAIR" INDICATES FEW OR NO CLOUDS BELOW 12000 FEET WITH NO
SIGNIFICANT WEATHER AND/OR OBSTRUCTIONS TO VISIBILITY.

COZ001>005-013-030-031-222300-
...NORTHWEST COLORADO...

CITY           SKY/WX    TMP DP  RH WIND       PRES   REMARKS
CRAIG          FAIR      26  16  65 CALM      29.95F
HAYDEN         FAIR      28  14  54 E7        29.95F WCI  21
MEEKER         FAIR      32  15  49 SW8       29.95F WCI  25
MOUNT WERNER   NOT AVBL
STEAMBOAT SPGS FAIR      29  12  49 CALM      29.95F
WALDEN           N/A     23  12  63 S15G21    29.93F WCI  10
$$

COZ006>008-011-222300-
...WEST CENTRAL VALLEYS...

CITY           SKY/WX    TMP DP  RH WIND       PRES   REMARKS
GRAND JUNCTION FAIR      39  23  52 SE16      29.98F
MONTROSE       FAIR      37  18  46 NE6       30.03F
EAGLE          MOSUNNY   34  12  40 W10       29.99F WCI  26
RIFLE          FAIR      35  20  54 VRB3      30.00F
DELTA          FAIR      41  17  37 NE5       30.04F
NUCLA          CLOUDY    32  27  80 NW3       30.08S
$$

COZ017>023-064>068-222300-
...SOUTHWEST COLORADO...

CITY           SKY/WX    TMP DP  RH WIND       PRES   REMARKS
DURANGO        FAIR      27  19  72 VRB3      30.10R
CORTEZ         CLOUDY    32  24  72 CALM      30.08S
PAGOSA SPRINGS FAIR      28  16  59 CALM      30.06F
TELLURIDE      CLOUDY    28   7  42 SE5       30.02R WCI  22
WOLF CREEK PAS CLOUDY    10  10 100 S10G20    30.02F WCI  -3
$$

COZ009-010-012-014-032>034-037-058>063-222300-
...CENTRAL COLORADO...

CITY           SKY/WX    TMP DP  RH WIND       PRES   REMARKS
ASPEN          FAIR      29  11  47 NW3       29.95F
BUENA VISTA    FAIR      30   5  34 W18G24    29.91F WCI  18
COPPER MTN     NOT AVBL
BERTHOUD PASS  NOT AVBL
COTTONWOOD PAS FAIR      30  -2  24 S14G28    29.92S WCI  20
GUNNISON       FAIR      21  12  68 NE3       30.04S
KREMMLING      FAIR      34  12  40 SW3       29.97F
LEADVILLE      FAIR      23  -2  33 N5        29.91F WCI  17
MONARCH PASS   CLOUDY     9   5  85 NW9G23    30.02R WCI  -5
SALIDA         FAIR      34   5  29 SW15G32   30.01R WCI  24
SUNLIGHT         N/A    N/A N/A N/A MISG      29.96F
WILKERSON PASS FAIR      19  -4  35 SW10G16   29.92S WCI   8
$$

COZ069>075-222300-
...SAN LUIS VALLEY/SANGRE DE CRISTO MOUNTAINS...

CITY           SKY/WX    TMP DP  RH WIND       PRES   REMARKS
ALAMOSA        FAIR      29  18  63 S7        30.00F WCI  22
LA VETA PASS   FAIR      23   3  42 NE29G45   29.91S WCI   6
SAGUACHE       FAIR      28  14  54 S6        30.02S WCI  22
$$

COZ035-036-038>040-222300-
...NORTHERN COLORADO FRONT RANGE...

CITY           SKY/WX    TMP DP  RH WIND       PRES   REMARKS
DENVER INTL AP FAIR      46   4  17 E5        29.87F
DMNS CITY PARK   N/A     45   1  16 E13       29.87S
AURORA         MOSUNNY   44   3  18 E5        29.88F
FRONT RANGE AP MOSUNNY   46   5  18 NE3       29.89
ERIE MUNI ARPT FAIR      46  -1  14 NE7       29.86F
BOULDER MUN AP FAIR      46   5  18 E6        29.86S
CENTENNIAL     PTSUNNY   42   2  18 SE5       29.87F
BROOMFIELD     MOSUNNY   46   0  14 CALM      29.86F
FORT COLLINS   FAIR      48   9  20 E5        29.87S
LONGMONT       FAIR      48   5  17 NW18G24   29.88S
$$

COZ041-046-047-076>085-087-088-222300-
...PIKES PEAK/PALMER DIVIDE AND SOUTHERN FOOTHILLS...

CITY           SKY/WX    TMP DP  RH WIND       PRES   REMARKS
COLO. SPRINGS  PTSUNNY   43   2  18 SE12      29.90F
A. F. ACADEMY  FAIR      42  -6  13 W7        29.87F
SCHRIEVER AFB  NOT AVBL
ELLICOTT       FAIR     N/A N/A N/A S7        29.90F
FALCON         FAIR      39   4  22 SE12      29.90F
FORT CARSON    NOT AVBL
LIMON          FAIR      44   9  23 VRB7      29.92R
MONUMENT HILL  FAIR      34   1  25 E5        29.90F WCI  30
TRINIDAD       FAIR      40  19  43 SE5       29.93F
$$

COZ042>045-048>051-090-091-222300-
...NORTHEAST COLORADO...

CITY           SKY/WX    TMP DP  RH WIND       PRES   REMARKS
GREELEY ARPT   FAIR      48  10  21 SE8       29.88F
AKRON          FAIR      44  14  29 NW14      29.89S
BURLINGTON     FAIR      47  25  42 N9        29.92R
WRAY           NOT AVBL
STERLING       FAIR      46  21  36 N16       29.88R
HOLYOKE        FAIR      52  25  35 N12       29.88S
FORT MORGAN    FAIR      45  13  28 NW14G22   29.90S
$$

COZ086-089-092>099-222300-
...SOUTHEAST COLORADO...

CITY           SKY/WX    TMP DP  RH WIND       PRES   REMARKS
PUEBLO         FAIR      51   7  16 W10       29.89F
LA JUNTA       FAIR      44  26  49 S8        29.94S
LAMAR          FAIR      51  20  29 N13G18    29.92R
SPRINGFIELD      N/A     47  18  31 N15       29.94R
$$




USA.gov is the U.S. government's official web portal to all federal, state and local government web resources and services.